Weather in Oghuz

Azerbaijan     41°03′47″N   47°27′31″E
temp.,
°C
wind,
m/s
gust,
m/s
humid.,
%
clouds,
%
prec.,
mm/h
press.,
hPa
HPBL,
m
10 april, sat
sat1001:00+16ne11535 0.0 101113
04:00+12nnw017447 0.4 101212
07:00+13nnw116926 0.2 101419
10:00+18sw215285 0.2 1014463
13:00+21s454597 0.1 10141152
16:00+21s5544100 0.1 10131033
19:00+18se345796 0.1 1014118
22:00+16ene2255100 0.1 101521
11 april, sun
sun1101:00+15ese1155100 0.0 101516
04:00+13sw016647 0.1 101513
07:00+13nne1166100 0.0 101611
10:00+17s3349100 0.0 1016647
13:00+20sse3542100 0.0 1014817
16:00+16ene5865100 0.4 1013412
19:00+16se1168100 0.1 101314
22:00+13e2275100 0.1 101626
12 april, mon
mon1201:00+12ene2273100 0.0 101513
04:00+13n0169100 0.0 101512
07:00+12nnw1272100 0.1 101525
10:00+18s22540 0.1 1015571
13:00+22sse55450 0.0 10141357
16:00+23se56410 0.1 10131393
19:00+18se58611 0.3 1014265
22:00+11se238331 0.9 101850
13 april, tue
tue1301:00+11ene338049 0.3 101952
04:00+11e227991 0.9 101824
07:00+11e1179100 0.4 101916
10:00+15s2358100 0.8 1019607
13:00+19sse46442 0.3 10171392
16:00+20se684087 0.3 10151659
19:00+15se3660100 0.2 1016130
22:00+13ne116299 0.3 101711
14 april, wed
wed1401:00+11nne116539 0.1 101613
04:00+10n227336 0.3 101514
07:00+11nw1269100 0.2 101547
10:00+14w3458100 0.4 1015467
13:00+14w6560100 0.3 1015865
16:00+11nw2376100 2.5 1015380
19:00+10sw1184100 0.9 101480
22:00+9e3493100 3.2 1016233